Time,TemperatureF,DewpointF,PressureIn,WindDirection,WindDirectionDegrees,WindSpeedMPH,WindSpeedGustMPH,Humidity,HourlyPrecipIn,Conditions,Clouds,dailyrainin,SoftwareType,DateUTC
2013-04-14 00:01:00,40.0,35.0,30.02,SSW,193,0.0,0.0,81,0.00,,,0.09,,2013-04-14 07:01:00,
2013-04-14 00:11:00,40.0,35.0,30.02,SSW,193,0.0,0.0,81,0.00,,,0.09,,2013-04-14 07:11:00,
2013-04-14 00:22:00,40.0,35.0,30.03,SSW,193,0.0,0.0,82,0.00,,,0.08,,2013-04-14 07:22:00,
2013-04-14 00:32:00,40.0,35.0,30.03,SSW,193,0.0,0.0,82,0.00,,,0.08,,2013-04-14 07:32:00,
2013-04-14 00:42:00,40.0,35.0,30.03,SSW,193,0.0,0.0,82,0.00,,,0.08,,2013-04-14 07:42:00,
2013-04-14 00:52:00,40.0,35.0,30.03,SSW,193,0.0,0.0,82,0.00,,,0.08,,2013-04-14 07:52:00,
2013-04-14 01:01:00,40.0,35.0,30.03,SSW,193,0.0,0.0,82,0.00,,,0.08,,2013-04-14 08:01:00,
2013-04-14 01:11:00,40.0,35.0,30.03,SSW,193,0.0,0.0,82,0.00,,,0.08,,2013-04-14 08:11:00,
2013-04-14 01:22:00,41.0,36.0,30.02,SSW,193,0.0,0.0,81,0.00,,,0.08,,2013-04-14 08:22:00,
2013-04-14 01:32:00,41.0,35.0,30.03,SW,218,0.0,0.0,80,0.00,,,0.08,,2013-04-14 08:32:00,
2013-04-14 01:42:00,41.0,35.0,30.03,SW,218,0.0,0.0,80,0.00,,,0.08,,2013-04-14 08:42:00,
2013-04-14 01:52:00,41.0,35.0,30.03,SSW,207,0.0,0.0,79,0.00,,,0.08,,2013-04-14 08:52:00,
2013-04-14 02:02:00,41.0,35.0,30.03,SSW,207,0.0,0.0,79,0.00,,,0.08,,2013-04-14 09:02:00,
2013-04-14 02:10:00,41.0,35.0,30.02,SW,227,0.0,0.0,79,0.00,,,0.08,,2013-04-14 09:10:00,
2013-04-14 02:11:00,41.0,35.0,30.03,SSW,207,0.0,0.0,79,0.00,,,0.08,,2013-04-14 09:11:00,
2013-04-14 02:22:00,41.0,35.0,30.03,SW,216,0.0,0.0,79,0.00,,,0.08,,2013-04-14 09:22:00,
2013-04-14 02:32:00,41.0,35.0,30.02,SW,227,0.0,0.0,79,0.00,,,0.08,,2013-04-14 09:32:00,
2013-04-14 02:42:00,41.0,35.0,30.02,SW,227,0.0,0.0,79,0.00,,,0.08,,2013-04-14 09:42:00,
2013-04-14 02:53:00,41.0,35.0,30.02,SW,227,0.0,0.0,79,0.00,,,0.08,,2013-04-14 09:53:00,
2013-04-14 03:02:00,41.0,35.0,30.02,SW,227,0.0,0.0,79,0.00,,,0.08,,2013-04-14 10:02:00,
2013-04-14 03:23:00,41.0,35.0,30.01,SSW,195,0.0,0.0,80,0.00,,,0.08,,2013-04-14 10:23:00,
2013-04-14 03:33:00,41.0,35.0,30.01,SSW,195,0.0,0.0,80,0.00,,,0.08,,2013-04-14 10:33:00,
2013-04-14 03:43:00,41.0,35.0,30.01,SSW,195,0.0,0.0,80,0.00,,,0.08,,2013-04-14 10:43:00,
2013-04-14 03:52:00,41.0,35.0,30.01,SSW,202,0.0,0.0,79,0.00,,,0.08,,2013-04-14 10:52:00,
2013-04-14 04:02:00,41.0,35.0,30.01,SSW,202,0.0,0.0,79,0.00,,,0.08,,2013-04-14 11:02:00,
2013-04-14 04:12:00,41.0,35.0,30.01,SSW,202,0.0,0.0,79,0.00,,,0.08,,2013-04-14 11:12:00,
2013-04-14 04:22:00,41.0,36.0,30.01,SW,224,0.0,0.0,81,0.00,,,0.08,,2013-04-14 11:22:00,
2013-04-14 04:32:00,41.0,36.0,30.00,SSW,213,0.0,0.0,83,0.00,,,0.08,,2013-04-14 11:32:00,
2013-04-14 04:42:00,41.0,36.0,30.00,SSW,213,0.0,0.0,83,0.00,,,0.08,,2013-04-14 11:42:00,
2013-04-14 04:52:00,41.0,37.0,29.99,SSW,206,0.0,0.0,84,0.00,,,0.08,,2013-04-14 11:52:00,
2013-04-14 05:02:00,40.0,36.0,29.99,SSW,211,0.0,0.0,84,0.00,,,0.08,,2013-04-14 12:02:00,
2013-04-14 05:12:00,40.0,36.0,29.99,SSW,211,0.0,0.0,84,0.00,,,0.08,,2013-04-14 12:12:00,
2013-04-14 05:21:00,41.0,37.0,29.99,SSW,205,0.0,0.0,84,0.00,,,0.08,,2013-04-14 12:21:00,
2013-04-14 05:32:00,41.0,37.0,29.99,SW,214,0.0,0.0,84,0.00,,,0.08,,2013-04-14 12:32:00,
2013-04-14 05:42:00,41.0,37.0,29.99,SW,214,0.0,0.0,84,0.00,,,0.08,,2013-04-14 12:42:00,
2013-04-14 05:52:00,41.0,37.0,29.99,South,180,0.0,0.0,84,0.00,,,0.07,,2013-04-14 12:52:00,
2013-04-14 06:02:00,41.0,37.0,29.99,South,180,0.0,0.0,84,0.00,,,0.07,,2013-04-14 13:02:00,
2013-04-14 06:12:00,41.0,37.0,29.99,South,180,0.0,0.0,84,0.00,,,0.07,,2013-04-14 13:12:00,
2013-04-14 06:22:00,40.0,36.0,29.98,SSE,167,0.0,0.0,84,0.00,,,0.01,,2013-04-14 13:22:00,
2013-04-14 06:33:00,40.0,36.0,29.98,SSE,167,0.0,0.0,84,0.00,,,0.01,,2013-04-14 13:33:00,
2013-04-14 06:42:00,40.0,36.0,29.98,SSE,167,0.0,0.0,84,0.00,,,0.01,,2013-04-14 13:42:00,
2013-04-14 06:52:00,40.0,36.0,29.99,SW,214,0.0,0.0,84,0.00,,,0.01,,2013-04-14 13:52:00,
2013-04-14 07:02:00,40.0,36.0,29.99,SW,214,0.0,0.0,84,0.00,,,0.01,,2013-04-14 14:02:00,
2013-04-14 07:12:00,40.0,36.0,29.99,SW,214,0.0,0.0,84,0.00,,,0.01,,2013-04-14 14:12:00,
2013-04-14 07:22:00,40.0,36.0,29.99,SSW,207,0.0,0.0,86,0.00,,,0.01,,2013-04-14 14:22:00,
2013-04-14 07:32:00,40.0,36.0,29.99,SSW,207,0.0,0.0,86,0.00,,,0.01,,2013-04-14 14:32:00,
2013-04-14 07:42:00,40.0,36.0,29.99,SSW,207,0.0,0.0,86,0.00,,,0.01,,2013-04-14 14:42:00,
2013-04-14 07:52:00,40.0,36.0,29.98,SW,214,0.0,0.0,87,0.00,,,0.01,,2013-04-14 14:52:00,
2013-04-14 08:02:00,40.0,36.0,29.98,SW,214,0.0,0.0,87,0.00,,,0.01,,2013-04-14 15:02:00,
2013-04-14 08:12:00,40.0,36.0,29.98,SW,214,0.0,0.0,87,0.00,,,0.01,,2013-04-14 15:12:00,
2013-04-14 08:22:00,40.0,36.0,29.98,SW,220,0.0,0.0,87,0.00,,,0.01,,2013-04-14 15:22:00,
2013-04-14 08:33:00,40.0,36.0,29.98,SSW,209,0.0,0.0,87,0.00,,,0.01,,2013-04-14 15:33:00,
2013-04-14 08:43:00,40.0,36.0,29.98,SSW,209,0.0,0.0,87,0.00,,,0.01,,2013-04-14 15:43:00,
2013-04-14 08:53:00,41.0,37.0,29.96,SSW,206,0.0,0.0,86,0.00,,,0.00,,2013-04-14 15:53:00,
2013-04-14 09:03:00,41.0,37.0,29.96,SSW,195,0.0,0.0,86,0.00,,,0.00,,2013-04-14 16:03:00,
2013-04-14 09:13:00,41.0,37.0,29.96,SSW,195,0.0,0.0,86,0.00,,,0.00,,2013-04-14 16:13:00,
2013-04-14 09:22:00,41.0,37.0,29.96,SSW,198,0.0,0.0,86,0.00,,,0.00,,2013-04-14 16:22:00,
2013-04-14 09:32:00,41.0,37.0,29.96,SSW,212,0.0,0.0,86,0.00,,,0.00,,2013-04-14 16:32:00,
2013-04-14 09:42:00,41.0,37.0,29.96,SSW,212,0.0,0.0,86,0.00,,,0.00,,2013-04-14 16:42:00,
2013-04-14 09:52:00,41.0,37.0,29.96,South,176,0.0,0.0,85,0.00,,,0.00,,2013-04-14 16:52:00,
2013-04-14 10:02:00,41.0,37.0,29.96,South,176,0.0,0.0,85,0.00,,,0.00,,2013-04-14 17:02:00,
2013-04-14 10:12:00,41.0,37.0,29.96,South,176,0.0,0.0,85,0.00,,,0.00,,2013-04-14 17:12:00,
2013-04-14 10:22:00,42.0,37.0,29.95,SSW,212,0.0,0.0,83,0.00,,,0.00,,2013-04-14 17:22:00,
2013-04-14 10:32:00,42.0,37.0,29.95,SSW,212,0.0,0.0,83,0.00,,,0.00,,2013-04-14 17:32:00,
2013-04-14 10:42:00,42.0,37.0,29.95,SSW,212,0.0,0.0,83,0.00,,,0.00,,2013-04-14 17:42:00,
2013-04-14 10:53:00,42.0,37.0,29.95,SSW,202,0.0,0.0,83,0.00,,,0.00,,2013-04-14 17:53:00,
2013-04-14 11:02:00,42.0,37.0,29.95,WSW,250,0.0,0.0,83,0.00,,,0.00,,2013-04-14 18:02:00,
2013-04-14 11:12:00,42.0,37.0,29.95,WSW,250,0.0,0.0,83,0.00,,,0.00,,2013-04-14 18:12:00,
2013-04-14 11:22:00,42.0,37.0,29.96,SW,228,0.0,0.0,83,0.00,,,0.00,,2013-04-14 18:22:00,
2013-04-14 11:32:00,42.0,37.0,29.96,SW,228,0.0,0.0,83,0.00,,,0.00,,2013-04-14 18:32:00,
2013-04-14 11:42:00,42.0,37.0,29.96,SW,228,0.0,0.0,83,0.00,,,0.00,,2013-04-14 18:42:00,
2013-04-14 11:52:00,42.0,38.0,29.95,SSW,206,0.0,0.0,86,0.02,,,0.02,,2013-04-14 18:52:00,
2013-04-14 12:03:00,42.0,38.0,29.95,South,186,0.0,0.0,87,0.04,,,0.04,,2013-04-14 19:03:00,
2013-04-14 12:12:00,42.0,38.0,29.95,South,186,0.0,0.0,87,0.04,,,0.04,,2013-04-14 19:12:00,
2013-04-14 12:22:00,42.0,38.0,29.94,SSW,210,0.0,0.0,87,0.05,,,0.05,,2013-04-14 19:22:00,
2013-04-14 12:32:00,42.0,38.0,29.94,SW,219,0.0,0.0,87,0.05,,,0.06,,2013-04-14 19:32:00,
2013-04-14 12:42:00,42.0,38.0,29.94,SW,219,0.0,0.0,87,0.05,,,0.06,,2013-04-14 19:42:00,
2013-04-14 12:52:00,42.0,38.0,29.93,SW,227,0.0,0.0,86,0.05,,,0.07,,2013-04-14 19:52:00,
2013-04-14 13:02:00,42.0,38.0,29.93,SW,227,0.0,0.0,86,0.05,,,0.07,,2013-04-14 20:02:00,
2013-04-14 13:12:00,42.0,38.0,29.93,SW,227,0.0,0.0,86,0.05,,,0.07,,2013-04-14 20:12:00,
2013-04-14 13:22:00,42.0,38.0,29.93,South,189,0.0,0.0,85,0.04,,,0.09,,2013-04-14 20:22:00,
2013-04-14 13:32:00,43.0,38.0,29.93,South,189,0.0,0.0,84,0.03,,,0.09,,2013-04-14 20:32:00,
2013-04-14 13:43:00,43.0,38.0,29.93,South,189,0.0,0.0,84,0.03,,,0.09,,2013-04-14 20:43:00,
2013-04-14 13:52:00,44.0,39.0,29.91,South,179,0.0,0.0,84,0.02,,,0.09,,2013-04-14 20:52:00,
2013-04-14 14:02:00,44.0,39.0,29.91,South,179,0.0,0.0,84,0.02,,,0.09,,2013-04-14 21:02:00,
2013-04-14 14:12:00,44.0,39.0,29.91,South,179,0.0,0.0,84,0.02,,,0.09,,2013-04-14 21:12:00,
2013-04-14 14:22:00,45.0,39.0,29.91,SSE,167,0.0,0.0,79,0.00,,,0.09,,2013-04-14 21:22:00,
2013-04-14 14:30:00,47.0,39.0,29.90,SSW,195,0.0,0.0,75,0.00,,,0.09,,2013-04-14 21:30:00,
2013-04-14 14:43:00,45.0,39.0,29.91,SSE,167,0.0,0.0,79,0.00,,,0.09,,2013-04-14 21:43:00,
2013-04-14 14:53:00,47.0,39.0,29.90,SSW,195,0.0,0.0,75,0.00,,,0.09,,2013-04-14 21:53:00,
2013-04-14 15:02:00,47.0,39.0,29.90,SSW,195,0.0,0.0,75,0.00,,,0.09,,2013-04-14 22:02:00,
2013-04-14 15:12:00,47.0,39.0,29.90,SSW,195,0.0,0.0,75,0.00,,,0.09,,2013-04-14 22:12:00,
2013-04-14 15:22:00,47.0,39.0,29.90,SSW,195,0.0,0.0,75,0.00,,,0.09,,2013-04-14 22:22:00,
2013-04-14 15:30:00,43.0,39.0,29.90,NE,54,0.0,0.0,86,0.01,,,0.10,,2013-04-14 22:30:00,
2013-04-14 15:52:00,43.0,39.0,29.90,NE,54,0.0,0.0,86,0.01,,,0.10,,2013-04-14 22:52:00,
2013-04-14 16:02:00,43.0,39.0,29.90,NE,54,0.0,0.0,86,0.01,,,0.10,,2013-04-14 23:02:00,
2013-04-14 16:12:00,43.0,39.0,29.90,NE,54,0.0,0.0,86,0.01,,,0.10,,2013-04-14 23:12:00,
2013-04-14 16:22:00,43.0,39.0,29.90,NE,54,0.0,0.0,86,0.01,,,0.10,,2013-04-14 23:22:00,
2013-04-14 16:53:00,47.0,39.0,29.88,NE,51,0.0,0.0,73,0.00,,,0.10,,2013-04-14 23:53:00,
2013-04-14 17:02:00,46.0,38.0,29.88,SSW,195,0.0,0.0,73,0.00,,,0.10,,2013-04-15 00:02:00,
2013-04-14 17:12:00,46.0,38.0,29.88,SSW,195,0.0,0.0,73,0.00,,,0.10,,2013-04-15 00:12:00,
2013-04-14 17:22:00,46.0,37.0,29.87,SSW,202,0.0,0.0,72,0.00,,,0.10,,2013-04-15 00:22:00,
2013-04-14 17:32:00,46.0,37.0,29.87,SSW,202,0.0,0.0,72,0.00,,,0.10,,2013-04-15 00:32:00,
2013-04-14 17:42:00,46.0,37.0,29.87,SSW,202,0.0,0.0,72,0.00,,,0.10,,2013-04-15 00:42:00,
2013-04-14 17:52:00,47.0,37.0,29.87,SSW,193,0.0,0.0,67,0.00,,,0.10,,2013-04-15 00:52:00,
2013-04-14 18:02:00,47.0,37.0,29.87,SSW,193,0.0,0.0,67,0.00,,,0.10,,2013-04-15 01:02:00,
2013-04-14 18:12:00,47.0,37.0,29.87,SSW,193,0.0,0.0,67,0.00,,,0.10,,2013-04-15 01:12:00,
2013-04-14 18:22:00,48.0,38.0,29.86,WSW,249,0.0,0.0,67,0.00,,,0.10,,2013-04-15 01:22:00,
2013-04-14 18:32:00,47.0,36.0,29.86,SW,228,0.0,0.0,66,0.00,,,0.10,,2013-04-15 01:32:00,
2013-04-14 18:42:00,47.0,36.0,29.86,SW,228,0.0,0.0,66,0.00,,,0.10,,2013-04-15 01:42:00,
2013-04-14 18:52:00,47.0,36.0,29.87,SW,228,0.0,0.0,66,0.00,,,0.10,,2013-04-15 01:52:00,
2013-04-14 19:02:00,47.0,36.0,29.87,SW,228,0.0,0.0,66,0.00,,,0.10,,2013-04-15 02:02:00,
2013-04-14 19:11:00,47.0,36.0,29.87,SW,228,0.0,0.0,66,0.00,,,0.10,,2013-04-15 02:11:00,
2013-04-14 19:22:00,44.0,38.0,29.87,North,0,0.0,0.0,78,0.00,,,0.10,,2013-04-15 02:22:00,
2013-04-14 19:32:00,43.0,37.0,29.87,NW,308,0.0,0.0,78,0.00,,,0.10,,2013-04-15 02:32:00,
2013-04-14 19:42:00,43.0,37.0,29.87,NW,308,0.0,0.0,78,0.00,,,0.10,,2013-04-15 02:42:00,
2013-04-14 19:52:00,43.0,37.0,29.87,NW,308,0.0,0.0,78,0.00,,,0.10,,2013-04-15 02:52:00,
2013-04-14 20:02:00,42.0,37.0,29.87,NNW,337,0.0,0.0,83,0.07,,,0.17,,2013-04-15 03:02:00,
2013-04-14 20:11:00,42.0,37.0,29.87,NNW,337,0.0,0.0,83,0.07,,,0.17,,2013-04-15 03:11:00,
2013-04-14 20:22:00,41.0,37.0,29.87,WNW,302,0.0,0.0,85,0.12,,,0.22,,2013-04-15 03:22:00,
2013-04-14 20:32:00,41.0,37.0,29.87,WNW,302,0.0,0.0,85,0.12,,,0.22,,2013-04-15 03:32:00,
2013-04-14 20:42:00,41.0,37.0,29.87,WNW,302,0.0,0.0,85,0.12,,,0.22,,2013-04-15 03:42:00,
2013-04-14 20:53:00,42.0,38.0,29.88,WNW,302,0.0,0.0,87,0.12,,,0.24,,2013-04-15 03:53:00,
2013-04-14 21:03:00,41.0,37.0,29.88,WNW,302,0.0,0.0,87,0.07,,,0.24,,2013-04-15 04:03:00,
2013-04-14 21:13:00,41.0,37.0,29.88,WNW,302,0.0,0.0,87,0.07,,,0.24,,2013-04-15 04:13:00,
2013-04-14 21:22:00,42.0,39.0,29.88,WNW,302,0.0,0.0,88,0.02,,,0.26,,2013-04-15 04:22:00,
2013-04-14 21:32:00,42.0,39.0,29.88,WNW,302,0.0,0.0,88,0.02,,,0.26,,2013-04-15 04:32:00,
2013-04-14 21:42:00,42.0,39.0,29.88,WNW,302,0.0,0.0,88,0.02,,,0.26,,2013-04-15 04:42:00,
2013-04-14 21:52:00,42.0,39.0,29.88,WNW,302,0.0,0.0,89,0.06,,,0.30,,2013-04-15 04:52:00,
2013-04-14 22:02:00,42.0,39.0,29.88,WNW,302,0.0,0.0,89,0.06,,,0.30,,2013-04-15 05:02:00,
2013-04-14 22:10:00,42.0,39.0,29.89,WNW,302,0.0,0.0,90,0.02,,,0.31,,2013-04-15 05:10:00,
2013-04-14 22:12:00,42.0,39.0,29.88,WNW,302,0.0,0.0,89,0.06,,,0.30,,2013-04-15 05:12:00,
2013-04-14 22:22:00,42.0,39.0,29.89,WNW,302,0.0,0.0,90,0.05,,,0.31,,2013-04-15 05:22:00,
2013-04-14 22:33:00,42.0,39.0,29.89,WNW,302,0.0,0.0,90,0.02,,,0.31,,2013-04-15 05:33:00,
2013-04-14 22:42:00,42.0,39.0,29.89,WNW,302,0.0,0.0,90,0.02,,,0.31,,2013-04-15 05:42:00,
2013-04-14 22:52:00,42.0,39.0,29.89,WNW,302,0.0,0.0,90,0.02,,,0.31,,2013-04-15 05:52:00,
2013-04-14 23:01:00,42.0,39.0,29.89,WNW,302,0.0,0.0,90,0.02,,,0.31,,2013-04-15 06:01:00,
2013-04-14 23:23:00,41.0,39.0,29.88,WNW,302,0.0,0.0,91,0.02,,,0.33,,2013-04-15 06:23:00,
2013-04-14 23:34:00,41.0,39.0,29.88,WNW,302,0.0,0.0,91,0.02,,,0.33,,2013-04-15 06:34:00,
2013-04-14 23:43:00,41.0,39.0,29.88,WNW,302,0.0,0.0,91,0.02,,,0.33,,2013-04-15 06:43:00,
2013-04-14 23:52:00,41.0,39.0,29.88,WNW,302,0.0,0.0,91,0.02,,,0.34,,2013-04-15 06:52:00,